Location: Casteau
(50.5142°N, 4.0161°E)
Time: 02:28:27
(UTC+00:00)

Meteor 2-13 Rocket - Pass Details

Date: 18 September 2020
Orbit: 936 x 958 km, 82.5° (Epoch: 24 October)

Event Time Altitude Azimuth Distance (km) Brightness Sun altitude
Rises 19:56:34 0° 349° (N) 3,652 8.1 -20.0°
Reaches altitude 10° 19:59:05 10° 349° (N) 2,702 7.3 -20.4°
Maximum altitude 20:05:17 89° 258° (WSW) 965 4.4 -21.2°
Enters shadow 20:09:01 26° 172° (S) 1,801 5.5 -21.7°
